| time (UTC) | temp F | wind direction | speed knots | gust knots | rain 1hr in | rain 24hr in | rain mn in | humidity % | barometer mb |
| 20260503072038 | 61 | 0.0 | 0.0 | 0.00 | 0.04 | 0.00 | 82 | 1011.3 | |
| 20260503071018 | 60 | 0.0 | 0.0 | 0.00 | 0.04 | 0.00 | 83 | 1011.3 | |
| 20260503055021 | 58 | 0.0 | 0.0 | 0.00 | 0.04 | 0.00 | 91 | 1011.3 | |
| 20260503054016 | 58 | 0.0 | 0.0 | 0.00 | 0.04 | 0.00 | 91 | 1011.2 | |
| 20260503053038 | 57 | 0.0 | 0.0 | 0.00 | 0.04 | 0.00 | 91 | 1011.3 | |
| 20260503052038 | 57 | 0.0 | 0.0 | 0.00 | 0.04 | 0.00 | 91 | 1011.2 | |
| 20260503051018 | 57 | 0.0 | 0.0 | 0.00 | 0.04 | 0.00 | 91 | 1011.2 | |
| 20260503050018 | 57 | 0.0 | 0.0 | 0.00 | 0.04 | 0.00 | 90 | 1011.3 | |
| 20260503045021 | 57 | 0.0 | 0.0 | 0.00 | 0.04 | 0.00 | 90 | 1011.2 | |
| 20260503044059 | 56 | 0.0 | 0.0 | 0.00 | 0.04 | 0.00 | 90 | 1011.3 | |
| 20260503043039 | 56 | 0.0 | 0.0 | 0.00 | 0.04 | 0.00 | 90 | 1011.4 | |
| 20260503042018 | 56 | 0.0 | 0.0 | 0.00 | 0.04 | 0.00 | 90 | 1011.5 | |
| 20260503041017 | 56 | 0.0 | 0.0 | 0.00 | 0.04 | 0.00 | 90 | 1011.5 | |
| 20260503040018 | 56 | 0.0 | 0.0 | 0.00 | 0.04 | 0.00 | 90 | 1011.5 | |
| 20260503035020 | 56 | 0.0 | 0.0 | 0.00 | 0.04 | 0.00 | 91 | 1011.5 | |
| 20260503034102 | 57 | 0.0 | 0.0 | 0.00 | 0.04 | 0.00 | 91 | 1011.5 | |
| 20260503033017 | 57 | 0.0 | 0.0 | 0.00 | 0.04 | 0.00 | 90 | 1011.5 | |
| 20260503032040 | 57 | 0.0 | 0.0 | 0.00 | 0.04 | 0.00 | 90 | 1011.6 | |
| 20260503031021 | 57 | 0.0 | 0.0 | 0.00 | 0.04 | 0.00 | 90 | 1011.6 | |
| 20260503030017 | 57 | 0.0 | 0.0 | 0.00 | 0.04 | 0.00 | 90 | 1011.6 | |
| 20260503025039 | 57 | 0.0 | 0.0 | 0.00 | 0.04 | 0.00 | 90 | 1011.7 | |
| 20260503024019 | 56 | 0.0 | 0.0 | 0.00 | 0.04 | 0.00 | 90 | 1011.8 | |
| 20260503023020 | 56 | 0.0 | 0.0 | 0.00 | 0.04 | 0.00 | 91 | 1011.7 | |
| 20260503022019 | 57 | 0.0 | 0.0 | 0.00 | 0.04 | 0.00 | 90 | 1011.7 | |
| 20260503021036 | 57 | 0.0 | 0.0 | 0.00 | 0.04 | 0.00 | 90 | 1011.7 | |
| 20260503020018 | 57 | 0.0 | 0.0 | 0.00 | 0.04 | 0.00 | 90 | 1011.9 | |
| 20260503015021 | 57 | 0.0 | 0.0 | 0.00 | 0.04 | 0.00 | 90 | 1012.1 | |
| 20260503014016 | 57 | 0.0 | 0.0 | 0.00 | 0.04 | 0.00 | 90 | 1012.1 | |
| 20260503013018 | 57 | 0.0 | 0.0 | 0.00 | 0.04 | 0.00 | 90 | 1012.1 | |
| 20260503012018 | 57 | 0.0 | 0.0 | 0.00 | 0.04 | 0.00 | 89 | 1012.2 | |
| 20260503011019 | 56 | 0.0 | 0.0 | 0.00 | 0.04 | 0.00 | 89 | 1012.3 | |
| 20260503010017 | 56 | 0.0 | 0.0 | 0.00 | 0.04 | 0.00 | 89 | 1012.3 | |
| 20260503005020 | 56 | 0.0 | 0.0 | 0.00 | 0.04 | 0.00 | 90 | 1012.3 | |
| 20260503004021 | 56 | 0.0 | 0.0 | 0.00 | 0.04 | 0.00 | 90 | 1012.4 | |
| 20260503003021 | 56 | 0.0 | 0.0 | 0.00 | 0.04 | 0.00 | 90 | 1012.4 | |
| 20260503002017 | 57 | 0.0 | 0.0 | 0.00 | 0.04 | 0.00 | 90 | 1012.5 | |
| 20260503001021 | 57 | 0.0 | 0.0 | 0.00 | 0.04 | 0.00 | 90 | 1012.6 | |
| 20260503000036 | 57 | 0.0 | 0.0 | 0.00 | 0.04 | 0.00 | 90 | 1012.8 | |
| 20260502235021 | 58 | 0.0 | 0.0 | 0.00 | 0.04 | 0.00 | 90 | 1012.8 | |
| 20260502234017 | 58 | 0.0 | 0.0 | 0.00 | 0.04 | 0.00 | 90 | 1012.9 | |
| 20260502233101 | 58 | 0.0 | 0.0 | 0.00 | 0.04 | 0.00 | 90 | 1013.0 | |
| 20260502232020 | 59 | 0.0 | 0.0 | 0.00 | 0.04 | 0.00 | 90 | 1013.0 | |
| 20260502231019 | 59 | 0.0 | 0.0 | 0.00 | 0.04 | 0.00 | 90 | 1013.0 | |
| 20260502230041 | 59 | 0.0 | 0.0 | 0.00 | 0.04 | 0.00 | 90 | 1013.1 | |
| 20260502225021 | 59 | 0.0 | 0.0 | 0.00 | 0.04 | 0.00 | 90 | 1013.2 | |
| 20260502224022 | 59 | 0.0 | 0.0 | 0.00 | 0.04 | 0.00 | 89 | 1013.3 | |
| 20260502223017 | 59 | 0.0 | 0.0 | 0.00 | 0.04 | 0.00 | 89 | 1013.3 | |
| 20260502222041 | 59 | 0.0 | 0.0 | 0.00 | 0.04 | 0.00 | 90 | 1013.3 | |
| 20260502221018 | 59 | 0.0 | 0.0 | 0.00 | 0.04 | 0.00 | 89 | 1013.4 | |
| 20260502220019 | 59 | 0.0 | 0.0 | 0.00 | 0.04 | 0.00 | 89 | 1013.5 | |
| 20260502215021 | 59 | 0.0 | 0.0 | 0.00 | 0.04 | 0.04 | 89 | 1013.4 | |
| 20260502214018 | 60 | 0.0 | 0.0 | 0.00 | 0.04 | 0.04 | 89 | 1013.4 | |
| 20260502213022 | 60 | 0.0 | 0.0 | 0.00 | 0.04 | 0.04 | 89 | 1013.5 | |
| 20260502212021 | 60 | 0.0 | 0.0 | 0.00 | 0.04 | 0.04 | 88 | 1013.6 | |
| 20260502211021 | 60 | 0.0 | 0.0 | 0.00 | 0.04 | 0.04 | 88 | 1013.5 | |
| 20260502210023 | 60 | 0.0 | 0.0 | 0.00 | 0.04 | 0.04 | 87 | 1013.6 | |
| 20260502205037 | 60 | 0.0 | 0.0 | 0.00 | 0.04 | 0.04 | 86 | 1013.4 | |
| 20260502204020 | 60 | 0.0 | 0.0 | 0.00 | 0.04 | 0.04 | 86 | 1013.4 | |
| 20260502203021 | 61 | 0.0 | 0.0 | 0.00 | 0.04 | 0.04 | 87 | 1013.4 | |
| 20260502202017 | 61 | 0.0 | 0.0 | 0.00 | 0.04 | 0.04 | 87 | 1013.5 | |
| 20260502201019 | 61 | 0.0 | 0.0 | 0.02 | 0.04 | 0.04 | 87 | 1013.5 | |
| 20260502200019 | 61 | 0.0 | 0.0 | 0.02 | 0.04 | 0.04 | 86 | 1013.5 | |
| 20260502195021 | 62 | 0.0 | 0.0 | 0.02 | 0.04 | 0.04 | 85 | 1013.5 | |
| 20260502194021 | 63 | 0.0 | 0.0 | 0.02 | 0.04 | 0.04 | 84 | 1013.5 | |
| 20260502193020 | 65 | 0.0 | 0.0 | 0.02 | 0.04 | 0.04 | 82 | 1013.6 | |
| 20260502192020 | 66 | 0.0 | 0.0 | 0.02 | 0.04 | 0.04 | 78 | 1013.7 | |
| 20260502191016 | 66 | 0.0 | 0.0 | 0.00 | 0.02 | 0.02 | 74 | 1013.7 | |
| 20260502190022 | 67 | 0.0 | 0.0 | 0.00 | 0.02 | 0.02 | 74 | 1013.7 | |
| 20260502185018 | 67 | 0.0 | 0.0 | 0.00 | 0.02 | 0.02 | 73 | 1013.8 | |
| 20260502184021 | 67 | 0.0 | 0.0 | 0.00 | 0.02 | 0.02 | 74 | 1013.9 | |
| 20260502183022 | 68 | 0.0 | 0.0 | 0.00 | 0.02 | 0.02 | 74 | 1013.8 | |
| 20260502182020 | 68 | 0.0 | 0.0 | 0.00 | 0.02 | 0.02 | 76 | 1013.7 | |
| 20260502181037 | 69 | 0.0 | 0.0 | 0.02 | 0.02 | 0.02 | 81 | 1013.8 | |
| 20260502164021 | 75 | 0.0 | 0.0 | 0.00 | 0.00 | 0.00 | 62 | 1013.9 | |
| 20260502163101 | 76 | 0.0 | 0.0 | 0.00 | 0.00 | 0.00 | 57 | 1014.2 | |
| 20260502162040 | 77 | 0.0 | 0.0 | 0.00 | 0.00 | 0.00 | 54 | 1014.2 | |
| 20260502161021 | 77 | 0.0 | 0.0 | 0.00 | 0.00 | 0.00 | 53 | 1014.3 | |
| 20260502152038 | 78 | 0.0 | 0.0 | 0.00 | 0.00 | 0.00 | 55 | 1014.8 | |
| 20260502151016 | 78 | 0.0 | 0.0 | 0.00 | 0.00 | 0.00 | 54 | 1015.1 | |
| 20260502123043 | 74 | 0.0 | 0.0 | 0.00 | 0.00 | 0.00 | 58 | 1017.5 | |
| 20260502122018 | 73 | 0.0 | 0.0 | 0.00 | 0.00 | 0.00 | 59 | 1017.5 | |
| 20260502121018 | 73 | 0.0 | 0.0 | 0.00 | 0.00 | 0.00 | 61 | 1017.6 | |
| 20260502115021 | 74 | 0.0 | 0.0 | 0.00 | 0.00 | 0.00 | 60 | 1017.8 | |
| 20260502114041 | 74 | 0.0 | 0.0 | 0.00 | 0.00 | 0.00 | 61 | 1017.9 | |
| 20260502113040 | 73 | 0.0 | 0.0 | 0.00 | 0.00 | 0.00 | 63 | 1018.0 | |
| 20260502112017 | 73 | 0.0 | 0.0 | 0.00 | 0.00 | 0.00 | 63 | 1018.1 | |
| 20260502111021 | 73 | 0.0 | 0.0 | 0.00 | 0.00 | 0.00 | 62 | 1018.1 | |
| 20260502110058 | 73 | 0.0 | 0.0 | 0.00 | 0.00 | 0.00 | 65 | 1018.1 | |
| 20260502105018 | 73 | 0.0 | 0.0 | 0.00 | 0.00 | 0.00 | 62 | 1018.2 | |
| 20260502104041 | 74 | 0.0 | 0.0 | 0.00 | 0.00 | 0.00 | 63 | 1018.3 | |
| 20260502103020 | 73 | 0.0 | 0.0 | 0.00 | 0.00 | 0.00 | 63 | 1018.4 | |
| 20260502102018 | 72 | 0.0 | 0.0 | 0.00 | 0.00 | 0.00 | 64 | 1018.4 | |
| 20260502101020 | 73 | 0.0 | 0.0 | 0.00 | 0.00 | 0.00 | 64 | 1018.5 | |
| 20260502091020 | 68 | 0.0 | 0.0 | 0.00 | 0.00 | 0.00 | 69 | 1018.7 |